H1 CPF 2 NER 2025 11 29 9 333 01 glonass137 H2 1705501 9137 42939 2025 11 29 0 0 0 2025 12 2 23 45 0 900 1 1 0 0 0 1 H9 10 0 61008 0.00000 0 17994900.924 -17399736.514 -4844923.746 10 0 61008 900.00000 0 17416028.260 -16853267.498 -7916644.868 10 0 61008 1800.00000 0 16667189.963 -15963737.359 -10834346.072 10 0 61008 2700.00000 0 15805191.359 -14726048.854 -13541269.848 10 0 61008 3600.00000 0 14888390.269 -13147966.943 -15984772.312 10 0 61008 4500.00000 0 13974123.152 -11250030.881 -18117350.929 10 0 61008 5400.00000 0 13116193.284 -9064937.232 -19897569.813 10 0 61008 6300.00000 0 12362527.425 -6636419.049 -21290864.585 10 0 61008 7200.00000 0 11753100.038 -4017667.645 -22270211.359 10 0 61008 8100.00000 0 11318212.455 -1269362.472 -22816647.292 10 0 61008 9000.00000 0 11077199.097 1542609.137 -22919633.208 10 0 61008 9900.00000 0 11037614.701 4349647.769 -22577251.863 10 0 61008 10800.00000 0 11194936.064 7083050.017 -21796238.664 10 0 61008 11700.00000 0 11532790.141 9676621.049 -20591844.723 10 0 61008 12600.00000 0 12023698.222 12069183.833 -18987535.324 10 0 61008 13500.00000 0 12630304.258 14206881.675 -17014529.870 10 0 61008 14400.00000 0 13307035.159 16045179.368 -14711192.337 10 0 61008 15300.00000 0 14002122.761 17550480.814 -12122284.060 10 0 61008 16200.00000 0 14659902.050 18701296.994 -9298093.311 10 0 61008 17100.00000 0 15223288.586 19488916.890 -6293458.455 10 0 61008 18000.00000 0 15636330.570 19917554.639 -3166703.638 10 0 61008 18900.00000 0 15846727.827 20003968.104 21492.357 10 0 61008 19800.00000 0 15808211.337 19776566.092 3209272.135 10 0 61008 20700.00000 0 15482682.829 19274042.753 6334797.687 10 0 61008 21600.00000 0 14842023.979 18543597.467 9337447.129 10 0 61008 22500.00000 0 13869498.649 17638815.686 12158987.036 10 0 61008 23400.00000 0 12560688.634 16617300.289 14744697.750 10 0 61008 24300.00000 0 10923922.897 15538153.226 17044430.133 10 0 61008 25200.00000 0 8980181.359 14459413.243 19013573.703 10 0 61008 26100.00000 0 6762476.173 13435557.164 20613917.843 10 0 61008 27000.00000 0 4314735.052 12515169.289 21814389.943 10 0 61008 27900.00000 0 1690231.771 11738876.332 22591656.694 10 0 61008 28800.00000 0 -1050372.293 11137634.185 22930577.275 10 0 61008 29700.00000 0 -3841295.706 10731438.064 22824499.863 10 0 61008 30600.00000 0 -6614120.896 10528510.025 22275395.707 10 0 61008 31500.00000 0 -9300392.679 10524997.985 21293827.862 10 0 61008 32400.00000 0 -11834224.672 10705199.138 19898754.638 10 0 61008 33300.00000 0 -14154806.309 11042298.761 18117170.771 10 0 61008 34200.00000 0 -16208706.883 11499593.846 15983592.355 10 0 61008 35100.00000 0 -17951881.139 12032150.532 13539394.588 10 0 61008 36000.00000 0 -19351293.069 12588825.879 10832014.268 10 0 61008 36900.00000 0 -20386090.094 13114568.885 7914031.862 10 0 61008 37800.00000 0 -21048278.564 13552903.462 4842150.593 10 0 61008 38700.00000 0 -21342872.273 13848488.042 1676092.259 10 0 61008 39600.00000 0 -21287507.924 13949642.817 -1522568.397 10 0 61008 40500.00000 0 -20911544.032 13810736.691 -4691607.542 10 0 61008 41400.00000 0 -20254681.753 13394331.746 -7769370.094 10 0 61008 42300.00000 0 -19365166.487 12672993.211 -10695976.880 10 0 61008 43200.00000 0 -18297646.988 11630687.088 -13414496.647 10 0 61008 44100.00000 0 -17110783.176 10263705.133 -15872059.350 10 0 61008 45000.00000 0 -15864704.478 8581077.091 -18020888.350 10 0 61008 45900.00000 0 -14618426.576 6604451.760 -19819231.132 10 0 61008 46800.00000 0 -13427335.933 4367451.088 -21232170.404 10 0 61008 47700.00000 0 -12340848.246 1914523.635 -22232299.988 10 0 61008 48600.00000 0 -11400339.256 -700655.194 -22800252.851 10 0 61008 49500.00000 0 -10637434.507 -3417169.916 -22925071.594 10 0 61008 50400.00000 0 -10072729.276 -6169156.379 -22604414.848 10 0 61008 51300.00000 0 -9714991.534 -8888302.945 -21844596.198 10 0 61008 52200.00000 0 -9560880.454 -11506458.023 -20660455.414 10 0 61008 53100.00000 0 -9595191.211 -13958236.134 -19075064.857 10 0 61008 54000.00000 0 -9791614.782 -16183514.960 -17119277.044 10 0 61008 54900.00000 0 -10113979.888 -18129720.369 -14831122.181 10 0 61008 55800.00000 0 -10517923.978 -19753805.221 -12255067.428 10 0 61008 56700.00000 0 -10952922.293 -21023840.547 -9441152.165 10 0 61008 57600.00000 0 -11364588.948 -21920153.811 -6444015.968 10 0 61008 58500.00000 0 -11697152.617 -22435967.800 -3321838.124 10 0 61008 59400.00000 0 -11896002.068 -22577514.535 -135209.262 10 0 61008 60300.00000 0 -11910193.856 -22363620.525 3054043.022 10 0 61008 61200.00000 0 -11694816.098 -21824781.690 6184051.641 10 0 61008 62100.00000 0 -11213108.315 -21001767.648 9194107.383 10 0 61008 63000.00000 0 -10438247.587 -19943814.580 12025832.988 10 0 61008 63900.00000 0 -9354725.287 -18706483.025 14624311.276 10 0 61008 64800.00000 0 -7959255.826 -17349270.730 16939145.729 10 0 61008 65700.00000 0 -6261178.334 -15933080.717 18925433.408 10 0 61008 66600.00000 0 -4282333.389 -14517650.544 20544631.778 10 0 61008 67500.00000 0 -2056418.627 -13159050.131 21765303.209 10 0 61008 68400.00000 0 372151.325 -11907352.436 22563723.275 10 0 61008 69300.00000 0 2949834.651 -10804574.015 22924341.415 10 0 61008 70200.00000 0 5615937.359 -9882971.114 22840085.310 10 0 61008 71100.00000 0 8304893.011 -9163762.201 22312503.033 10 0 61008 72000.00000 0 10948753.925 -8656330.135 21351739.939 10 0 61008 72900.00000 0 13479791.675 -8357937.252 19976350.192 10 0 61008 73800.00000 0 15833099.867 -8253965.319 18212945.783 10 0 61008 74700.00000 0 17949091.699 -8318670.404 16095688.942 10 0 61008 75600.00000 0 19775788.755 -8516421.095 13665636.820 10 0 61008 76500.00000 0 21270805.803 -8803368.057 10969950.242 10 0 61008 77400.00000 0 22402948.615 -9129474.558 8060981.267 10 0 61008 78300.00000 0 23153357.832 -9440822.044 4995256.805 10 0 61008 79200.00000 0 23516150.708 -9682092.882 1832377.983 10 0 61008 80100.00000 0 23498533.662 -9799124.531 -1366143.046 10 0 61008 81000.00000 0 23120380.949 -9741426.058 -4538085.672 10 0 61008 81900.00000 0 22413297.373 -9464549.306 -7621738.572 10 0 61008 82800.00000 0 21419204.976 -8932213.001 -10557107.943 10 0 61008 83700.00000 0 20188513.870 -8118088.612 -13287091.811 10 0 61008 84600.00000 0 18777955.028 -7007171.123 -15758596.690 10 0 61008 85500.00000 0 17248167.104 -5596675.618 -17923574.226 10 0 61009 0.00000 0 15661139.742 -3896420.934 -19739957.163 10 0 61009 900.00000 0 14077620.599 -1928682.308 -21172477.257 10 0 61009 1800.00000 0 12554597.493 272479.303 -22193347.095 10 0 61009 2700.00000 0 11142958.557 2662386.849 -22782796.265 10 0 61009 3600.00000 0 9885430.328 5187365.309 -22929449.518 10 0 61009 4500.00000 0 8814878.720 7786742.144 -22630541.278 10 0 61009 5400.00000 0 7953043.301 10395147.121 -21891962.800 10 0 61009 6300.00000 0 7309756.729 12945016.290 -20728141.553 10 0 61009 7200.00000 0 6882680.809 15369196.476 -19161755.624 10 0 61009 8100.00000 0 6657568.902 17603542.522 -17223288.881 10 0 61009 9000.00000 0 6609042.355 19589399.910 -14950435.645 10 0 61009 9900.00000 0 6701847.159 21275870.041 -12387366.443 10 0 61009 10800.00000 0 6892536.887 22621764.578 -9583869.000 10 0 61009 11700.00000 0 7131510.204 23597168.126 -6594381.086 10 0 61009 12600.00000 0 7365316.296 24184544.818 -3476933.915 10 0 61009 13500.00000 0 7539130.455 24379343.410 -292026.629 10 0 61009 14400.00000 0 7599294.844 24190076.385 2898546.315 10 0 61009 15300.00000 0 7495816.835 23637870.564 6032892.014 10 0 61009 16200.00000 0 7184719.115 22755508.728 9050217.017 10 0 61009 17100.00000 0 6630142.020 21586003.035 11892003.061 10 0 61009 18000.00000 0 5806109.034 20180760.395 14503137.970 10 0 61009 18900.00000 0 4697880.511 18597416.947 16832980.052 10 0 61009 19800.00000 0 3302837.924 16897432.280 18836335.762 10 0 61009 20700.00000 0 1630860.541 15143543.962 20474332.154 10 0 61009 21600.00000 0 -295822.461 13397188.424 21715167.743 10 0 61009 22500.00000 0 -2443299.684 11715995.468 22534727.783 10 0 61009 23400.00000 0 -4767138.704 10151460.481 22917052.400 10 0 61009 24300.00000 0 -7213994.024 8746890.888 22854648.802 10 0 61009 25200.00000 0 -9723596.548 7535711.977 22348641.470 10 0 61009 26100.00000 0 -12231043.400 6540202.342 21408757.179 10 0 61009 27000.00000 0 -14669294.259 5770711.365 20053144.585 10 0 61009 27900.00000 0 -16971771.576 5225391.161 18308031.096 10 0 61009 28800.00000 0 -19074957.278 4890454.046 16207222.782 10 0 61009 29700.00000 0 -20920878.279 4740944.567 13791456.050 10 0 61009 30600.00000 0 -22459377.317 4741993.538 11107612.766 10 0 61009 31500.00000 0 -23650074.106 4850501.089 8207813.357 10 0 61009 32400.00000 0 -24463934.423 5017177.402 5148405.100 10 0 61009 33300.00000 0 -24884380.978 5188854.469 1988865.109 10 0 61009 34200.00000 0 -24907898.971 5310970.330 -1209360.339 10 0 61009 35100.00000 0 -24544110.616 5330119.742 -4384057.027 10 0 61009 36000.00000 0 -23815315.346 5196562.076 -7473460.403 10 0 61009 36900.00000 0 -22755515.161 4866578.987 -10417464.879 10 0 61009 37800.00000 0 -21408966.470 4304580.700 -13158800.355 10 0 61009 38700.00000 0 -19828319.897 3484870.456 -15644152.232 10 0 61009 39600.00000 0 -18072426.939 2392991.319 -17825202.423 10 0 61009 40500.00000 0 -16203906.328 1026597.367 -19659570.785 10 0 61009 41400.00000 0 -14286572.796 -604188.471 -21111638.565 10 0 61009 42300.00000 0 -12382836.521 -2476945.818 -22153238.062 10 0 61009 43200.00000 0 -10551182.258 -4557651.080 -22764195.539 10 0 61009 44100.00000 0 -8843833.460 -6801866.107 -22932717.444 10 0 61009 45000.00000 0 -7304698.537 -9156372.120 -22655613.063 10 0 61009 45900.00000 0 -5967684.215 -11561181.288 -21938349.934 10 0 61009 46800.00000 0 -4855445.331 -13951842.546 -20794941.480 10 0 61009 47700.00000 0 -3978621.984 -16261946.080 -19247669.427 10 0 61009 48600.00000 0 -3335594.440 -18425722.643 -17326646.668 10 0 61009 49500.00000 0 -2912764.520 -20380629.966 -15069229.132 10 0 61009 50400.00000 0 -2685350.146 -22069818.958 -12519288.097 10 0 61009 51300.00000 0 -2618658.312 -23444377.416 -9726356.995 10 0 61009 52200.00000 0 -2669781.686 -24465258.174 -6744669.170 10 0 61009 53100.00000 0 -2789646.371 -25104811.677 -3632105.230 10 0 61009 54000.00000 0 -2925323.656 -25347859.510 -449070.409 10 0 61009 54900.00000 0 -3022507.528 -25192264.522 2742676.286 10 0 61009 55800.00000 0 -3028052.856 -24648974.207 5881218.329 10 0 61009 56700.00000 0 -2892466.635 -23741536.023 8905680.107 10 0 61009 57600.00000 0 -2572246.778 -22505105.347 11757404.332 10 0 61009 58500.00000 0 -2031969.368 -20984987.877 14381085.688 10 0 61009 59400.00000 0 -1246035.959 -19234777.640 16725839.011 10 0 61009 60300.00000 0 -200006.728 -17314168.391 18746181.681 10 0 61009 61200.00000 0 1108537.329 -15286529.675 20402911.650 10 0 61009 62100.00000 0 2669640.366 -13216348.329 21663864.635 10 0 61009 63000.00000 0 4461141.921 -11166641.579 22504536.350 10 0 61009 63900.00000 0 6449365.734 -9196448.932 22908558.113 10 0 61009 64800.00000 0 8590299.985 -7358506.641 22868016.863 10 0 61009 65700.00000 0 10831221.433 -5697200.859 22383613.432 10 0 61009 66600.00000 0 13112697.379 -4246884.137 21464655.690 10 0 61009 67500.00000 0 15370883.584 -3030624.835 20128886.207 10 0 61009 68400.00000 0 17540023.728 -2059441.125 18402146.977 10 0 61009 69300.00000 0 19555047.153 -1332051.218 16317886.821 10 0 61009 70200.00000 0 21354157.200 -835149.895 13916520.038 10 0 61009 71100.00000 0 22881302.259 -544199.450 11244647.850 10 0 61009 72000.00000 0 24088426.103 -424701.410 8354157.059 10 0 61009 72900.00000 0 24937402.885 -433895.051 5301212.974 10 0 61009 73800.00000 0 25401575.076 -522810.444 2145166.059 10 0 61009 74700.00000 0 25466829.121 -638588.516 -1052606.182 10 0 61009 75600.00000 0 25132163.003 -726969.042 -4229898.995 10 0 61009 76500.00000 0 24409721.354 -734840.078 -7324897.739 10 0 61009 77400.00000 0 23324296.390 -612739.679 -10277388.123 10 0 61009 78300.00000 0 21912315.643 -317202.599 -13029934.861 10 0 61009 79200.00000 0 20220359.249 187148.607 -15529004.942 10 0 61009 80100.00000 0 18303269.512 925857.756 -17726012.977 10 0 61009 81000.00000 0 16221932.575 1913309.336 -19578267.911 10 0 61009 81900.00000 0 14040825.675 3151879.844 -21049802.626 10 0 61009 82800.00000 0 11825433.091 4631602.699 -22112070.457 10 0 61009 83700.00000 0 9639639.011 6330361.568 -22744495.532 10 0 61009 84600.00000 0 7543206.122 8214604.601 -22934866.836 10 0 61009 85500.00000 0 5589444.746 10240550.176 -22679568.991 10 0 61010 0.00000 0 3823169.153 12355834.036 -21983645.979 10 0 61010 900.00000 0 2279024.278 14501530.586 -20860696.691 10 0 61010 1800.00000 0 980253.651 16614461.565 -19332605.743 10 0 61010 2700.00000 0 -62044.712 18629699.919 -17429113.812 10 0 61010 3600.00000 0 -849142.621 20483162.017 -15187236.758 10 0 61010 4500.00000 0 -1394379.495 22114181.520 -12650544.528 10 0 61010 5400.00000 0 -1722347.749 23467957.605 -9868313.790 10 0 61010 6300.00000 0 -1867601.501 24497775.653 -6894570.676 10 0 61010 7200.00000 0 -1872944.202 25166907.870 -3787042.132 10 0 61010 8100.00000 0 -1787368.453 25450114.657 -606036.242 10 0 61010 9000.00000 0 -1663735.733 25334684.218 2586726.782 10 0 61010 9900.00000 0 -1556294.678 24820967.120 5729310.136 10 0 61010 10800.00000 0 -1518143.186 23922383.702 8760759.319 10 0 61010 11700.00000 0 -1598741.905 22664904.151 11622281.121 10 0 61010 12600.00000 0 -1841584.391 21086023.133 14258379.977 10 0 61010 13500.00000 0 -2282122.552 19233271.802 16617929.877 10 0 61010 14400.00000 0 -2946035.186 17162329.178 18655161.460 10 0 61010 15300.00000 0 -3847913.059 14934811.423 20330545.601 10 0 61010 16200.00000 0 -4990416.530 12615830.692 21611556.917 10 0 61010 17100.00000 0 -6363942.042 10271424.606 22473302.932 10 0 61010 18000.00000 0 -7946812.678 7965962.628 22899007.112 10 0 61010 18900.00000 0 -9705986.200 5759636.398 22880336.684 10 0 61010 19800.00000 0 -11598252.547 3706137.580 22417568.905 10 0 61010 20700.00000 0 -13571872.360 1850618.998 21519592.318 10 0 61010 21600.00000 0 -15568589.660 228023.208 20203742.450 10 0 61010 22500.00000 0 -17525936.069 -1138152.559 18495474.382 10 0 61010 23400.00000 0 -19379731.404 -2236604.067 16427877.653 10 0 61010 24300.00000 0 -21066676.938 -3068449.618 14041041.936 10 0 61010 25200.00000 0 -22526933.233 -3646932.297 11381284.879 10 0 61010 26100.00000 0 -23706574.545 -3996607.865 8500256.402 10 0 61010 27000.00000 0 -24559816.544 -4152052.955 5453936.375 10 0 61010 27900.00000 0 -25050923.191 -4156148.650 2301545.023 10 0 61010 28800.00000 0 -25155711.836 -4058012.642 -895612.530 10 0 61010 29700.00000 0 -24862592.376 -3910668.344 -4075344.539 10 0 61010 30600.00000 0 -24173095.983 -3768550.632 -7175789.695 10 0 61010 31500.00000 0 -23101870.512 -3684955.057 -10136628.256 10 0 61010 32400.00000 0 -21676142.397 -3709539.766 -12900262.773 10 0 61010 33300.00000 0 -19934667.504 -3885987.151 -15412944.559 10 0 61010 34200.00000 0 -17926215.073 -4249925.312 -17625823.288 10 0 61010 35100.00000 0 -15707648.610 -4827198.243 -19495898.932 10 0 61010 36000.00000 0 -13341684.390 -5632558.644 -20986857.429 10 0 61010 36900.00000 0 -10894421.670 -6668839.212 -22069773.996 10 0 61010 37800.00000 0 -8432747.905 -7926637.878 -22723670.878 10 0 61010 38700.00000 0 -6021727.164 -9384530.703 -22935919.257 10 0 61010 39600.00000 0 -3722080.279 -11009803.913 -22702478.197 10 0 61010 40500.00000 0 -1587861.034 -12759674.725 -22027966.579 10 0 61010 41400.00000 0 335575.813 -14582950.217 -20925567.219 10 0 61010 42300.00000 0 2013231.232 -16422055.141 -19416765.401 10 0 61010 43200.00000 0 3421675.816 -18215344.191 -17530927.195 10 0 61010 44100.00000 0 4549771.839 -19899602.379 -15304725.798 10 0 61010 45000.00000 0 5398875.050 -21412629.221 -12781427.093 10 0 61010 45900.00000 0 5982509.473 -22695798.901 -10010048.190 10 0 61010 46800.00000 0 6325530.540 -23696489.519 -7044405.179 10 0 61010 47700.00000 0 6462813.176 -24370279.877 -3942068.542 10 0 61010 48600.00000 0 6437521.375 -24682821.925 -763246.477 10 0 61010 49500.00000 0 6299033.238 -24611310.540 2430382.224 10 0 61010 50400.00000 0 6100609.845 -24145489.072 5576862.986 10 0 61010 51300.00000 0 5896906.983 -23288148.543 8615164.748 10 0 61010 52200.00000 0 5741435.201 -22055099.538 11486360.543 10 0 61010 53100.00000 0 5684075.751 -20474617.801 14134766.500 10 0 61010 54000.00000 0 5768757.430 -18586386.520 16509017.479 10 0 61010 54900.00000 0 6031392.506 -16439979.076 18563058.830 10 0 61010 55800.00000 0 6498158.982 -14092945.107 20257035.517 10 0 61010 56700.00000 0 7184201.872 -11608578.984 21558061.920 10 0 61010 57600.00000 0 8092808.725 -9053462.828 22440857.926 10 0 61010 58500.00000 0 9215094.829 -6494885.384 22888239.392 10 0 61010 59400.00000 0 10530212.405 -3998243.082 22891453.783 10 0 61010 60300.00000 0 12006076.294 -1624530.275 22450354.465 10 0 61010 61200.00000 0 13600577.190 571977.949 21573410.092 10 0 61010 62100.00000 0 15263233.079 2545754.966 20277548.366 10 0 61010 63000.00000 0 16937211.177 4261680.137 18587836.468 10 0 61010 63900.00000 0 18561636.895 5696256.226 16537003.465 10 0 61010 64800.00000 0 20074094.020 6838336.490 14164813.001 10 0 61010 65700.00000 0 21413211.847 7689331.513 11517297.524 10 0 61010 66600.00000 0 22521230.827 8262887.594 8645868.210 10 0 61010 67500.00000 0 23346438.699 8584050.713 5606317.382 10 0 61010 68400.00000 0 23845374.102 8687951.858 2457732.686 10 0 61010 69300.00000 0 23984704.057 8618069.885 -738655.661 10 0 61010 70200.00000 0 23742695.321 8424146.158 -3920671.591 10 0 61010 71100.00000 0 23110216.603 8159840.148 -7026409.841 10 0 61010 72000.00000 0 22091228.546 7880226.359 -9995447.895 10 0 61010 72900.00000 0 20702740.082 7639239.709 -12770028.697 10 0 61010 73800.00000 0 18974232.486 7487178.683 -15296190.266 10 0 61010 74700.00000 0 16946575.032 7468373.007 -17524819.513 10 0 61010 75600.00000 0 14670477.638 7619115.410 -19412609.396 10 0 61010 76500.00000 0 12204545.366 7965945.608 -20922900.655 10 0 61010 77400.00000 0 9613016.217 8524359.516 -22026391.956 10 0 61010 78300.00000 0 6963276.746 9297998.484 -22701705.028 10 0 61010 79200.00000 0 4323258.955 10278352.982 -22935794.415 10 0 61010 80100.00000 0 1758826.654 11444993.343 -22724194.521 10 0 61010 81000.00000 0 -668740.560 12766318.025 -22071099.797 10 0 61010 81900.00000 0 -2905061.820 14200788.140 -20989277.066 10 0 61010 82800.00000 0 -4904672.824 15698596.584 -19499812.119 10 0 61010 83700.00000 0 -6632664.348 17203701.999 -17631695.749 10 0 61010 84600.00000 0 -8065874.700 18656142.512 -15421257.382 10 0 61010 85500.00000 0 -9193588.033 19994532.432 -12911457.293 10 0 61011 0.00000 0 -10017710.986 21158637.354 -10151051.337 10 0 61011 900.00000 0 -10552422.353 22091920.399 -7193642.766 10 0 61011 1800.00000 0 -10823311.057 22743951.338 -4096643.246 10 0 61011 2700.00000 0 -10866041.503 23072579.654 -920158.256 10 0 61011 3600.00000 0 -10724602.598 23045778.679 2274177.835 10 0 61011 4500.00000 0 -10449215.676 22643084.003 5424395.789 10 0 61011 5400.00000 0 -10093990.231 21856565.512 8469391.158 10 0 61011 6300.00000 0 -9714426.889 20691292.045 11350106.366 10 0 61011 7200.00000 0 -9364873.330 19165268.874 14010672.330 10 0 61011 8100.00000 0 -9096040.643 17308850.179 16399487.745 10 0 61011 9000.00000 0 -8952684.928 15163650.470 18470215.472 10 0 61011 9900.00000 0 -8971551.902 12780999.735 20182677.148 10 0 61011 10800.00000 0 -9179671.147 10220005.861 21503629.233 10 0 61011 11700.00000 0 -9593071.996 7545303.998 22407405.977 10 0 61011 12600.00000 0 -10215975.456 4824585.461 22876417.273 10 0 61011 13500.00000 0 -11040496.774 2126007.699 22901492.032 10 0 61011 14400.00000 0 -12046871.993 -484408.241 22482060.473 10 0 61011 15300.00000 0 -13204200.102 -2945285.700 21626171.580 10 0 61011 16200.00000 0 -14471670.851 -5202202.687 20350344.883 10 0 61011 17100.00000 0 -15800227.988 -7209709.269 18679258.744 10 0 61011 18000.00000 0 -17134599.270 -8932968.777 16645280.262 10 0 61011 18900.00000 0 -18415608.990 -10348955.035 14287845.029 10 0 61011 19800.00000 0 -19582676.528 -11447156.081 11652697.778 10 0 61011 20700.00000 0 -20576396.123 -12229755.373 8791008.022 10 0 61011 21600.00000 0 -21341089.200 -12711283.319 5758377.318 10 0 61011 22500.00000 0 -21827221.270 -12917754.314 2613757.293 10 0 61011 23400.00000 0 -21993580.695 -12885326.246 -581700.315 10 0 61011 24300.00000 0 -21809126.448 -12658539.819 -3765838.723 10 0 61011 25200.00000 0 -21254425.808 -12288212.973 -6876712.310 10 0 61011 26100.00000 0 -20322620.217 -11829080.494 -9853799.299 10 0 61011 27000.00000 0 -19019877.611 -11337279.782 -12639186.396 10 0 61011 27900.00000 0 -17365311.302 -10867790.240 -15178701.481 10 0 61011 28800.00000 0 -15390368.208 -10471935.659 -17422971.569 10 0 61011 29700.00000 0 -13137711.679 -10195056.040 -19328385.079 10 0 61011 30600.00000 0 -10659645.453 -10074447.887 -20857939.575 10 0 61011 31500.00000 0 -8016144.555 -10137660.366 -21981958.643 10 0 61011 32400.00000 0 -5272575.218 -10401219.372 -22678664.388 10 0 61011 33300.00000 0 -2497198.685 -10869833.309 -22934595.012 10 0 61011 34200.00000 0 241437.441 -11536113.927 -22744859.996 10 0 61011 35100.00000 0 2877112.298 -12380823.768 -22113228.582 10 0 61011 36000.00000 0 5348441.422 -13373639.678 -21052050.384 10 0 61011 36900.00000 0 7601179.513 -14474400.152 -19582010.091 10 0 61011 37800.00000 0 9590221.757 -15634784.040 -17731721.299 10 0 61011 38700.00000 0 11281221.754 -16800350.092 -15537167.437 10 0 61011 39600.00000 0 12651760.115 -17912851.685 -13041000.690 10 0 61011 40500.00000 0 13692016.580 -18912729.550 -10291712.424 10 0 61011 41400.00000 0 14404919.174 -19741677.786 -7342691.130 10 0 61011 42300.00000 0 14805765.723 -20345175.319 -4251186.096 10 0 61011 43200.00000 0 14921335.113 -20674876.345 -1077196.908 10 0 61011 44100.00000 0 14788526.923 -20690759.177 2117689.701 10 0 61011 45000.00000 0 14452587.805 -20362942.945 5271492.972 10 0 61011 45900.00000 0 13965000.161 -19673095.587 8323038.069 10 0 61011 46800.00000 0 13381122.753 -18615373.607 11213139.582 10 0 61011 47700.00000 0 12757683.070 -17196853.704 13885745.701 10 0 61011 48600.00000 0 12150227.367 -15437437.573 16289021.108 10 0 61011 49500.00000 0 11610635.825 -13369233.114 18376347.951 10 0 61011 50400.00000 0 11184807.403 -11035437.008 20107225.927 10 0 61011 51300.00000 0 10910611.703 -8488764.269 21448054.567 10 0 61011 52200.00000 0 10816193.909 -5789489.001 22372783.081 10 0 61011 53100.00000 0 10918704.091 -3003176.660 22863415.615 10 0 61011 54000.00000 0 11223504.460 -198200.777 22910362.392 10 0 61011 54900.00000 0 11723888.312 2556854.047 22512630.027 10 0 61011 55800.00000 0 12401323.097 5195796.224 21677847.075 10 0 61011 56700.00000 0 13226208.235 7657331.306 20422123.891 10 0 61011 57600.00000 0 14159116.801 9887363.097 18769748.774 10 0 61011 58500.00000 0 15152469.858 11840996.726 16752725.414 10 0 61011 59400.00000 0 16152573.878 13484160.883 14410159.701 10 0 61011 60300.00000 0 17101936.198 14794781.973 11787506.830 10 0 61011 61200.00000 0 17941761.291 15763461.419 8935692.641 10 0 61011 62100.00000 0 18614522.667 16393628.099 5910125.734 10 0 61011 63000.00000 0 19066501.487 16701159.902 2769619.383 10 0 61011 63900.00000 0 19250184.040 16713490.767 -424755.594 10 0 61011 64800.00000 0 19126415.826 16468241.499 -3610864.198 10 0 61011 65700.00000 0 18666220.133 16011432.898 -6726722.930 10 0 61011 66600.00000 0 17852203.069 15395357.603 -9711713.146 10 0 61011 67500.00000 0 16679484.563 14676201.606 -12507767.570 10 0 61011 68400.00000 0 15156114.995 13911517.020 -15060506.021 10 0 61011 69300.00000 0 13302958.986 13157653.890 -17320297.505 10 0 61011 70200.00000 0 11153050.498 12467260.375 -19243227.620 10 0 61011 71100.00000 0 8750445.712 11886957.464 -20791952.326 10 0 61011 72000.00000 0 6148621.314 11455286.691 -21936421.575 10 0 61011 72900.00000 0 3408484.773 11201017.438 -22654459.188 10 0 61011 73800.00000 0 596079.268 11141884.993 -22932188.228 10 0 61011 74700.00000 0 -2219921.482 11283812.106 -22764294.279 10 0 61011 75600.00000 0 -4970824.737 11620646.342 -22154122.147 10 0 61011 76500.00000 0 -7590528.729 12134423.748 -21113604.691 10 0 61011 77400.00000 0 -10018023.365 12796147.230 -19663025.572 10 0 61011 78300.00000 0 -12199678.747 13567046.486 -17830620.834 10 0 61011 79200.00000 0 -14091227.463 14400266.157 -15652027.140 10 0 61011 80100.00000 0 -15659359.379 15242910.951 -13169587.412 10 0 61011 81000.00000 0 -16882863.865 16038361.499 -10431527.255 10 0 61011 81900.00000 0 -17753273.211 16728763.367 -7491018.042 10 0 61011 82800.00000 0 -18274981.757 17257584.327 -4405144.806 10 0 61011 83700.00000 0 -18464837.143 17572132.052 -1233798.883 10 0 61011 84600.00000 0 -18351222.153 17625926.091 1961483.177 10 0 61011 85500.00000 0 -17972666.807 17380823.990 5118711.832 99